This is the latest recevied weather packets stored in our database for station/object E25HML-13. If no packets are shown the sender has not sent any weather packets the latest 10 day(s).
| Time | Temp. | Humidity | Pressure | Rain* | Wind** | Luminosity | Snow |
|---|---|---|---|---|---|---|---|
| 1777459695 | 36.67° C | 49% | 1001.7 hPa | - | - | - | - |
| 1777459395 | 37.22° C | 48% | 1001.5 hPa | - | - | - | - |
| 1777459095 | 36.67° C | 48% | 1001.5 hPa | - | - | - | - |
| 1777458795 | 36.67° C | 48% | 1001.4 hPa | - | - | - | - |
| 1777458495 | 36.67° C | 48% | 1001.4 hPa | - | - | - | - |
| 1777458195 | 36.67° C | 48% | 1001.5 hPa | - | - | - | - |
| 1777457895 | 36.67° C | 48% | 1001.4 hPa | - | - | - | - |
| 1777457595 | 36.67° C | 49% | 1001.4 hPa | - | - | - | - |
| 1777457295 | 36.67° C | 48% | 1001.5 hPa | - | - | - | - |
| 1777456995 | 36.11° C | 48% | 1001.5 hPa | - | - | - | - |
| 1777456695 | 36.11° C | 48% | 1001.5 hPa | - | - | - | - |
| 1777456395 | 36.11° C | 48% | 1001.5 hPa | - | - | - | - |
| 1777456095 | 36.11° C | 48% | 1001.6 hPa | - | - | - | - |
| 1777455794 | 36.11° C | 48% | 1001.7 hPa | - | - | - | - |
| 1777455495 | 36.11° C | 48% | 1001.6 hPa | - | - | - | - |
| 1777455195 | 35.56° C | 48% | 1001.8 hPa | - | - | - | - |
| 1777454895 | 35.56° C | 48% | 1001.7 hPa | - | - | - | - |
| 1777454595 | 35.56° C | 48% | 1001.8 hPa | - | - | - | - |
| 1777454295 | 35.56° C | 48% | 1001.8 hPa | - | - | - | - |
| 1777453995 | 35.56° C | 47% | 1001.8 hPa | - | - | - | - |
| 1777453695 | 35° C | 47% | 1001.8 hPa | - | - | - | - |
| 1777453395 | 35° C | 48% | 1001.9 hPa | - | - | - | - |
| 1777453095 | 34.44° C | 48% | 1001.9 hPa | - | - | - | - |
| 1777452795 | 33.33° C | 51% | 1002 hPa | - | - | - | - |
| 1777452495 | 31.67° C | 53% | 1002.1 hPa | - | - | - | - |
* Rain since midnight (hover to see other rain measurements)
** Current wind speed in m/s (hover to see current wind gust speed)